• Em Portugal
  • Lista de países
  • Para 7 dias
  • Temperatura da água
  • Mapas de satélite
  • Mapa do tempo
  • Widgets de tempo
  • user-avatar
    Iniciar Sessão

    Previsão horária em Maryna

    Hoje, 16 Agosto, Quinta-feira

    Tempo Temperatura Precipitação Vento Pressão Humidade
    00:00 +16°C° 0 mm 2 m/s 747 mmHg 97%
    01:00 +15°C° 0 mm 2 m/s 747 mmHg 97%
    02:00 +15°C° 0 mm 2 m/s 747 mmHg 98%
    03:00 +15°C° 0 mm 2 m/s 747 mmHg 98%
    04:00 +14°C° 0 mm 2 m/s 747 mmHg 98%
    05:00 +14°C° 0 mm 2 m/s 747 mmHg 98%
    06:00 +15°C° 0 mm 2 m/s 748 mmHg 94%
    07:00 +17°C° 0 mm 2 m/s 748 mmHg 91%
    08:00 +18°C° 0 mm 2 m/s 748 mmHg 87%
    09:00 +19°C° 0 mm 2 m/s 749 mmHg 81%
    10:00 +21°C° 0 mm 1 m/s 749 mmHg 74%
    11:00 +23°C° 0 mm 1 m/s 749 mmHg 68%
    12:00 +23°C° 0,1 mm 1 m/s 749 mmHg 65%
    13:00 +24°C° 0,1 mm 1 m/s 749 mmHg 61%
    14:00 +25°C° 0,1 mm 1 m/s 749 mmHg 58%
    15:00 +25°C° 0 mm 1 m/s 748 mmHg 59%
    16:00 +25°C° 0 mm 1 m/s 748 mmHg 60%
    17:00 +25°C° 0 mm 1 m/s 748 mmHg 61%
    18:00 +23°C° 0 mm 1 m/s 748 mmHg 66%
    19:00 +22°C° 0 mm 1 m/s 748 mmHg 72%
    20:00 +20°C° 0 mm 1 m/s 748 mmHg 77%
    21:00 +20°C° 0 mm 1 m/s 748 mmHg 80%
    22:00 +19°C° 0 mm 1 m/s 748 mmHg 82%
    23:00 +18°C° 0 mm 1 m/s 748 mmHg 85%

    Amanhã, 17 Agosto, Sexta-feira

    Tempo Temperatura Precipitação Vento Pressão Humidade
    00:00 +18°C° 0 mm 1 m/s 748 mmHg 87%
    01:00 +16°C° 0 mm 1 m/s 748 mmHg 89%
    02:00 +16°C° 0 mm 1 m/s 748 mmHg 90%
    03:00 +16°C° 0 mm 1 m/s 748 mmHg 91%
    04:00 +15°C° 0 mm 1 m/s 748 mmHg 92%
    05:00 +15°C° 0 mm 1 m/s 748 mmHg 93%
    06:00 +18°C° 0 mm 1 m/s 749 mmHg 89%
    07:00 +18°C° 0 mm 2 m/s 749 mmHg 85%
    08:00 +19°C° 0 mm 2 m/s 749 mmHg 80%
    09:00 +21°C° 0 mm 2 m/s 749 mmHg 74%
    10:00 +23°C° 0 mm 2 m/s 749 mmHg 68%
    11:00 +25°C° 0 mm 2 m/s 748 mmHg 62%
    12:00 +25°C° 0 mm 2 m/s 748 mmHg 61%
    13:00 +25°C° 0 mm 2 m/s 748 mmHg 59%
    14:00 +26°C° 0 mm 2 m/s 748 mmHg 57%
    15:00 +26°C° 0 mm 1 m/s 747 mmHg 57%
    16:00 +26°C° 0 mm 1 m/s 747 mmHg 57%
    17:00 +26°C° 0 mm 1 m/s 747 mmHg 57%
    18:00 +24°C° 0 mm 1 m/s 747 mmHg 63%
    19:00 +23°C° 0 mm 1 m/s 747 mmHg 70%
    20:00 +21°C° 0 mm 1 m/s 747 mmHg 77%
    21:00 +20°C° 0 mm 1 m/s 747 mmHg 79%
    22:00 +19°C° 0 mm 1 m/s 747 mmHg 82%
    23:00 +17°C° 0 mm 0 m/s 747 mmHg 85%

    Depois de amanhã, 18 Agosto, Sábado

    Tempo Temperatura Precipitação Vento Pressão Humidade
    00:00 +16°C° 0 mm 0 m/s 747 mmHg 86%
    01:00 +16°C° 0 mm 0 m/s 747 mmHg 87%
    02:00 +16°C° 0 mm 0 m/s 747 mmHg 88%
    03:00 +15°C° 0 mm 0 m/s 747 mmHg 89%
    04:00 +15°C° 0 mm 0 m/s 747 mmHg 89%
    05:00 +15°C° 0 mm 0 m/s 747 mmHg 90%
    06:00 +17°C° 0 mm 0 m/s 747 mmHg 85%
    07:00 +18°C° 0 mm 0 m/s 747 mmHg 80%
    08:00 +20°C° 0 mm 0 m/s 747 mmHg 75%
    09:00 +22°C° 0 mm 0 m/s 747 mmHg 69%
    10:00 +23°C° 0 mm 0 m/s 747 mmHg 63%
    11:00 +25°C° 0 mm 0 m/s 747 mmHg 57%
    12:00 +27°C° 0 mm 1 m/s 747 mmHg 54%
    13:00 +27°C° 0 mm 1 m/s 747 mmHg 52%
    14:00 +28°C° 0 mm 2 m/s 747 mmHg 49%
    15:00 +28°C° 0 mm 2 m/s 747 mmHg 51%
    16:00 +27°C° 0 mm 2 m/s 747 mmHg 54%
    17:00 +27°C° 0 mm 2 m/s 746 mmHg 56%
    18:00 +25°C° 0,1 mm 2 m/s 747 mmHg 62%
    19:00 +23°C° 0,1 mm 1 m/s 747 mmHg 68%
    20:00 +22°C° 0,1 mm 1 m/s 747 mmHg 74%
    21:00 +21°C° 0,1 mm 1 m/s 747 mmHg 77%
    22:00 +20°C° 0,1 mm 1 m/s 747 mmHg 79%
    23:00 +20°C° 0,1 mm 1 m/s 747 mmHg 82%

    19 Agosto, Domingo

    Tempo Temperatura Precipitação Vento Pressão Humidade
    00:00 +19°C° 0,2 mm 1 m/s 747 mmHg 85%
    01:00 +18°C° 0,2 mm 2 m/s 747 mmHg 89%
    02:00 +17°C° 0,2 mm 2 m/s 747 mmHg 92%
    03:00 +17°C° 0 mm 2 m/s 747 mmHg 94%
    04:00 +16°C° 0 mm 2 m/s 748 mmHg 95%
    05:00 +16°C° 0 mm 2 m/s 748 mmHg 97%
    06:00 +17°C° 0 mm 2 m/s 748 mmHg 93%
    07:00 +18°C° 0 mm 3 m/s 748 mmHg 89%
    08:00 +18°C° 0 mm 3 m/s 748 mmHg 85%
    09:00 +19°C° 0 mm 3 m/s 748 mmHg 77%
    10:00 +21°C° 0 mm 3 m/s 748 mmHg 70%
    11:00 +22°C° 0 mm 3 m/s 749 mmHg 63%
    12:00 +22°C° 0 mm 4 m/s 748 mmHg 62%
    13:00 +22°C° 0 mm 4 m/s 748 mmHg 61%
    14:00 +23°C° 0 mm 4 m/s 748 mmHg 60%
    15:00 +22°C° 0 mm 4 m/s 748 mmHg 63%
    16:00 +22°C° 0 mm 4 m/s 748 mmHg 66%
    17:00 +22°C° 0 mm 3 m/s 748 mmHg 70%
    18:00 +21°C° 0 mm 3 m/s 748 mmHg 76%
    19:00 +19°C° 0 mm 2 m/s 748 mmHg 81%
    20:00 +19°C° 0 mm 1 m/s 748 mmHg 87%
    21:00 +18°C° 0 mm 1 m/s 748 mmHg 89%
    22:00 +18°C° 0 mm 1 m/s 749 mmHg 92%
    23:00 +16°C° 0 mm 1 m/s 749 mmHg 94%

    20 Agosto, Segunda-feira

    Tempo Temperatura Precipitação Vento Pressão Humidade
    00:00 +16°C° 0 mm 1 m/s 749 mmHg 94%
    01:00 +16°C° 0 mm 1 m/s 748 mmHg 95%
    02:00 +15°C° 0 mm 1 m/s 748 mmHg 96%
    03:00 +15°C° 0 mm 1 m/s 748 mmHg 96%
    04:00 +15°C° 0 mm 1 m/s 748 mmHg 96%
    05:00 +14°C° 0 mm 1 m/s 748 mmHg 95%
    06:00 +16°C° 0 mm 1 m/s 748 mmHg 91%
    07:00 +18°C° 0 mm 1 m/s 748 mmHg 86%
    08:00 +19°C° 0 mm 1 m/s 748 mmHg 82%
    09:00 +20°C° 0 mm 2 m/s 748 mmHg 75%
    10:00 +23°C° 0 mm 2 m/s 748 mmHg 69%
    11:00 +24°C° 0 mm 2 m/s 748 mmHg 63%
    12:00 +25°C° 0 mm 3 m/s 748 mmHg 60%
    13:00 +26°C° 0 mm 3 m/s 748 mmHg 58%
    14:00 +26°C° 0 mm 3 m/s 747 mmHg 55%
    15:00 +26°C° 0 mm 3 m/s 747 mmHg 56%
    16:00 +27°C° 0 mm 3 m/s 747 mmHg 58%
    17:00 +27°C° 0 mm 3 m/s 746 mmHg 59%
    18:00 +25°C° 0,1 mm 2 m/s 746 mmHg 64%
    19:00 +24°C° 0,1 mm 2 m/s 746 mmHg 69%
    20:00 +21°C° 0,1 mm 2 m/s 746 mmHg 74%
    21:00 +21°C° 0 mm 2 m/s 746 mmHg 75%
    22:00 +20°C° 0 mm 2 m/s 746 mmHg 76%
    23:00 +20°C° 0 mm 3 m/s 746 mmHg 77%

    21 Agosto, Terça-feira

    Tempo Temperatura Precipitação Vento Pressão Humidade
    00:00 +20°C° 0 mm 3 m/s 746 mmHg 76%
    01:00 +20°C° 0 mm 3 m/s 745 mmHg 75%
    02:00 +20°C° 0 mm 3 m/s 745 mmHg 74%
    03:00 +19°C° 0 mm 3 m/s 745 mmHg 75%
    04:00 +19°C° 0 mm 3 m/s 745 mmHg 77%
    05:00 +19°C° 0 mm 3 m/s 745 mmHg 79%
    06:00 +19°C° 0 mm 3 m/s 745 mmHg 78%
    07:00 +20°C° 0 mm 3 m/s 745 mmHg 77%
    08:00 +21°C° 0 mm 4 m/s 746 mmHg 77%
    09:00 +22°C° 0 mm 4 m/s 746 mmHg 72%
    10:00 +23°C° 0 mm 4 m/s 746 mmHg 68%
    11:00 +25°C° 0 mm 5 m/s 746 mmHg 63%
    12:00 +26°C° 0,1 mm 5 m/s 746 mmHg 63%
    13:00 +26°C° 0,1 mm 5 m/s 745 mmHg 62%
    14:00 +27°C° 0,1 mm 5 m/s 745 mmHg 62%
    15:00 +26°C° 0,1 mm 4 m/s 745 mmHg 66%
    16:00 +25°C° 0,1 mm 4 m/s 745 mmHg 70%
    17:00 +24°C° 0,1 mm 3 m/s 745 mmHg 74%
    18:00 +23°C° 0,1 mm 2 m/s 745 mmHg 78%
    19:00 +21°C° 0,1 mm 2 m/s 745 mmHg 82%
    20:00 +21°C° 0,1 mm 1 m/s 745 mmHg 86%
    21:00 +20°C° 0 mm 1 m/s 745 mmHg 86%
    22:00 +20°C° 0 mm 1 m/s 745 mmHg 87%
    23:00 +19°C° 0 mm 1 m/s 745 mmHg 87%
    Mostrar mais